This demonstration page uses our WeatherBlox Daily Observations layout. Learn more.

Left ArrowRight Arrow

Hourly Observations for November 6, 2019

Temp ( °F °C ) Dew Point ( °F °C ) Humidity (%) Winds ( mph kmh ) Pressure ( in mb ) Visibility ( mi km ) Precip ( " mm )
12:56 am 00:56 Clear 38 3.3 31 -0.6 76 76 SW 6 9 30.16 1021 10 16 0.00 0.00
1:56 am 01:56 Clear 38 3.3 31 -0.6 76 76 SW 8 13 30.16 1021 10 16 0.00 0.00
2:56 am 02:56 Clear 37 2.8 30 -1.1 76 76 SSW 8 13 30.15 1021 10 16 0.00 0.00
3:56 am 03:56 Clear 34 1.1 29 -1.7 82 82 SW 6 9 30.14 1021 10 16 0.00 0.00
4:56 am 04:56 Clear 35 1.7 29 -1.7 78 78 SW 6 9 30.15 1021 10 16 0.00 0.00
5:56 am 05:56 Clear 35 1.7 29 -1.7 78 78 N 8 13 30.18 1022 10 16 0.00 0.00
6:56 am 06:56 Clear 33 0.6 28 -2.2 82 82 Calm 30.20 1023 10 16 0.00 0.00
7:46 am 07:46 Partly Cloudy 34 1 30 -1 87 87 NNE 14 22 30.28 1025 10 16 0.00 0.00
7:56 am 07:56 Partly Cloudy 33 0.6 31 -0.6 92 92 NNE 15 24 30.24 1024 10 16 0.00 0.00
8:04 am 08:04 Mostly Cloudy 34 1 30 -1 87 87 NNE 18 30 30.29 1026 10 16 0.00 0.00
8:56 am 08:56 Cloudy 31 -0.6 28 -2.2 89 89 N 17 28 30.29 1026 9 14 0.00 0.00
9:26 am 09:26 Cloudy 30 -1 28 -2 93 93 NNE 18 30 30.36 1028 7 11 0.00 0.00
9:56 am 09:56 Cloudy 32 0 29 -1.7 88 88 N 23 37 30.31 1026 7 11 0.00 0.00
10:56 am 10:56 Cloudy 31 -0.6 29 -1.7 92 92 N 20 31 30.34 1027 10 16 0.00 0.00
11:18 am 11:18 Cloudy 32 0 28 -2 87 87 N 22 35 30.39 1029 10 16 0.00 0.00
11:56 am 11:56 Cloudy 32 0 29 -1.7 88 88 NNE 25 41 30.36 1028 10 16 0.00 0.00
12:56 pm 12:56 Cloudy 32 0 28 -2.2 85 85 NNE 25 41 30.35 1028 10 16 0.00 0.00
1:56 pm 13:56 Cloudy 33 0.6 27 -2.8 78 78 NNE 26 43 30.36 1028 10 16 0.00 0.00
2:04 pm 14:04 Cloudy 34 1 27 -3 75 75 NNE 25 41 30.39 1029 10 16 0.00 0.00
2:48 pm 14:48 Cloudy 36 2 25 -4 65 65 NNE 24 39 30.41 1030 10 16 0.00 0.00
2:56 pm 14:56 Cloudy 35 1.7 23 -5 61 61 NNE 26 43 30.39 1029 10 16 0.00 0.00
3:56 pm 15:56 Cloudy 34 1.1 22 -5.6 61 61 NNE 22 35 30.42 1030 10 16 0.00 0.00
4:56 pm 16:56 Cloudy 33 0.6 21 -6.1 61 61 NNE 25 41 30.44 1031 10 16 0.00 0.00
5:56 pm 17:56 Cloudy 31 -0.6 22 -5.6 69 69 NNE 23 37 30.47 1032 10 16 0.00 0.00
6:56 pm 18:56 Cloudy 30 -1.1 22 -5.6 72 72 NNE 20 31 30.51 1033 10 16 0.00 0.00
7:19 pm 19:19 Cloudy 30 -1 21 -6 69 69 NNE 18 30 30.56 1035 10 16 0.00 0.00
7:56 pm 19:56 Cloudy 29 -1.7 22 -5.6 75 75 NNE 15 24 30.54 1034 10 16 0.00 0.00
8:56 pm 20:56 Cloudy 28 -2.2 23 -5 81 81 NNE 21 33 30.56 1035 10 16 0.00 0.00
9:42 pm 21:42 Cloudy 27 -3 21 -6 80 80 N 22 35 30.63 1037 9 14 0.00 0.00
9:56 pm 21:56 Cloudy 26 -3.3 22 -5.6 84 84 N 24 39 30.58 1036 10 16 0.00 0.00
10:39 pm 22:39 Cloudy 27 -3 19 -7 74 74 NNE 21 33 30.66 1038 10 16 0.00 0.00
10:56 pm 22:56 Cloudy 25 -3.9 21 -6.1 85 85 N 22 35 30.61 1037 10 16 0.00 0.00
11:53 pm 23:53 Cloudy 25 -4 18 -8 74 74 N 17 28 30.68 1039 10 16 0.00 0.00
11:56 pm 23:56 Cloudy 24 -4.4 18 -7.8 77 77 N 18 30 30.63 1037 10 16 0.00 0.00

Powered by AerisWeather